Wind_Speed
17 19 16 15 15 14 13 12 12 12 13 14 12 11 10 10 10 12 11 11 10 9 9 8 7 7 8 8 7 7 7 8 10 10 12 13 15 17 17 17 14 8 13
18 19 17 16 14 13 12 11 11 12 12 13 12 11 9 7 7 6 7 8 6 8 8 7 7 8 7 8 6 7 8 11 12 13 12 11 13 15 14 13 12 9 10
19 19 17 15 14 13 11 11 11 11 11 11 11 10 8 6 5 7 5 7 8 6 6 7 7 6 7 5 6 7 12 16 17 17 17 9 9 10 11 13 6 8 10
17 17 16 15 13 13 12 11 10 10 10 10 9 9 8 6 5 3 6 8 8 9 5 6 5 4 5 4 7 11 17 17 16 15 10 7 7 7 7 8 9 9 10
19 16 14 14 12 11 11 11 10 9 10 11 10 8 7 5 4 3 2 2 1 4 8 5 4 4 4 6 8 11 15 14 11 15 10 11 1 5 8 8 7 8 10
22 9 10 12 12 10 9 9 9 9 9 10 10 8 7 6 6 5 3 2 2 3 2 3 3 3 5 6 7 10 14 13 14 10 3 5 4 3 2 6 6 7 7
15 9 8 12 12 11 9 9 8 9 9 9 9 9 8 8 6 5 4 3 2 2 2 3 4 4 4 5 6 9 14 13 13 10 6 4 3 7 2 4 5 5 5
15 10 11 13 12 11 10 10 10 10 9 8 8 8 8 9 8 7 5 4 3 3 3 4 5 5 5 5 6 9 14 15 7 8 5 5 4 4 5 5 5 5 5
19 7 7 13 12 12 11 10 10 10 10 9 8 9 9 9 8 5 5 5 5 5 4 4 6 6 8 7 7 10 14 11 7 10 7 7 5 4 6 5 5 5 5
14 3 5 7 9 9 11 10 9 9 10 9 8 8 8 7 5 5 5 4 4 5 5 4 4 6 8 9 8 10 12 10 9 12 7 8 7 9 5 6 6 5 4
6 14 11 9 9 9 7 8 10 10 8 8 8 10 8 5 3 2 3 2 5 5 5 5 4 5 8 10 9 10 12 12 10 6 9 8 7 6 4 6 6 5 5
15 16 13 12 11 10 11 8 5 9 8 6 4 5 2 5 9 8 8 4 6 5 5 4 4 4 6 8 7 9 9 9 6 6 13 10 10 10 8 5 7 7 6
14 17 10 10 13 5 8 9 4 4 4 6 7 11 8 10 5 22 10 2 4 3 1 6 4 5 2 9 8 5 5 8 11 13 10 4 8 7 9 8 7 7 7
12 13 8 8 11 11 11 5 11 13 13 16 9 16 13 11 16 17 14 10 8 5 5 7 13 9 12 12 14 9 7 9 13 12 14 11 9 11 13 11 10 9 9
13 12 11 9 12 10 13 10 13 13 9 9 15 13 14 10 12 13 13 12 11 4 5 6 10 14 10 12 11 8 10 11 11 10 14 9 10 11 13 16 12 11 11
33 17 7 6 11 12 14 15 12 11 12 10 13 14 12 10 12 11 14 12 10 10 14 15 16 10 13 12 12 12 12 11 11 14 15 12 11 14 13 14 16 14 12
21 29 22 10 8 10 10 11 14 17 16 16 16 16 13 13 14 15 14 15 15 19 20 18 16 18 19 15 14 15 15 16 17 16 17 21 18 20 14 12 14 17 14
27 18 8 7 9 7 7 9 12 11 13 13 14 15 13 16 17 15 19 19 15 20 19 27 15 13 14 16 18 19 17 15 19 19 18 17 19 20 19 15 14 12 16
22 17 5 4 7 11 7 10 8 12 14 12 11 13 14 18 18 17 19 20 16 16 15 11 15 13 13 13 15 18 21 22 22 20 22 21 19 21 21 20 15 11 12
13 9 4 4 6 3 5 9 9 7 10 14 9 11 8 6 12 16 16 15 15 13 13 13 15 15 14 13 12 14 17 17 19 23 21 20 19 20 22 28 14 14 9
4 7 6 6 7 2 3 7 11 11 10 4 4 5 4 6 6 10 9 10 11 12 11 11 12 9 10 12 16 16 15 15 20 21 21 18 19 19 17 23 19 14 12
2 1 2 8 7 8 9 6 7 12 16 17 14 9 4 2 5 6 6 5 7 8 9 9 11 12 18 17 20 18 19 20 24 24 23 21 19 18 14 15 18 15 17
3 3 7 10 7 7 8 7 10 13 11 8 7 6 5 4 5 7 8 6 10 9 5 12 10 13 16 15 14 14 6 8 9 16 18 18 22 20 15 14 20 19 19
8 8 12 9 7 9 9 4 11 2 1 4 4 5 4 3 3 7 9 9 9 10 13 14 15 16 16 16 15 17 19 16 7 4 13 18 13 10 17 13 16 18 13
5 7 9 9 8 10 13 5 5 3 2 2 2 3 4 7 2 9 9 8 9 10 9 9 10 11 12 13 14 15 15 17 17 13 3 9 7 10 10 14 6 8 4
8 7 6 9 11 11 12 9 5 4 8 2 2 2 4 4 8 10 8 7 5 3 4 4 5 7 7 9 9 8 7 9 11 12 8 6 5 6 2 4 5 6 6
Wind_Direction
129 131 132 129 125 123 122 120 122 122 127 130 126 124 124 117 105 99 105 107 104 98 96 96 88 82 93 87 94 101 101 108 105 106 109 99 105 107 102 90 72 86 96
129 136 134 130 126 124 122 126 126 130 130 134 134 136 135 125 119 109 95 93 94 102 94 97 94 84 87 95 97 98 101 102 90 91 85 99 114 113 109 112 133 96 102
132 133 132 131 131 127 126 131 132 135 138 143 143 143 144 129 124 120 121 84 78 88 95 100 103 99 105 104 102 102 104 103 103 95 81 70 110 116 115 124 119 88 107
128 130 131 133 135 135 134 136 137 140 148 151 156 154 158 148 142 121 117 99 83 65 103 102 112 105 118 114 106 108 114 115 107 93 101 108 67 107 115 111 109 103 105
135 130 128 131 135 139 141 143 144 143 148 154 159 164 169 168 156 147 161 166 134 117 82 91 99 118 125 128 118 117 124 120 105 79 55 126 32 97 117 120 110 114 113
143 138 128 132 135 138 140 148 152 154 149 153 157 167 179 191 174 187 187 218 176 200 152 104 129 132 124 134 135 123 120 120 102 100 141 148 284 36 137 137 119 115 110
157 155 149 141 142 143 147 153 160 165 165 166 164 171 178 188 192 198 205 207 204 165 191 170 159 158 162 145 151 133 134 122 112 101 130 210 264 278 223 159 139 140 125
144 167 180 153 150 151 156 162 169 174 175 179 176 179 180 186 193 195 208 215 218 201 179 185 196 186 184 171 167 146 139 132 125 132 206 283 304 284 216 169 157 149 142
147 150 172 164 159 162 163 169 176 181 183 187 185 185 186 190 196 201 218 219 219 234 216 200 195 200 193 190 179 160 151 149 148 137 217 258 259 305 219 192 179 167 171
150 160 216 178 169 177 175 170 175 186 191 195 190 191 186 189 203 214 219 226 215 228 248 238 216 211 205 197 188 178 170 168 159 140 190 243 262 296 249 208 189 182 182
156 160 181 169 207 176 203 187 185 189 196 200 216 193 185 191 149 234 241 219 260 226 243 243 236 224 210 204 202 193 192 179 174 243 227 237 254 290 259 223 211 205 199
173 175 192 224 220 205 192 212 223 195 212 203 230 226 172 196 182 201 235 230 268 242 241 261 260 242 218 208 221 217 202 166 204 220 230 235 259 275 267 249 226 223 222
182 193 200 190 223 245 211 221 210 221 211 216 248 231 202 209 205 238 220 230 244 244 234 277 284 244 198 195 234 240 226 185 235 246 255 253 262 265 265 248 236 228 229
178 192 172 213 229 232 232 209 188 205 229 259 229 238 234 213 189 189 219 232 238 248 256 245 237 219 218 234 233 234 217 231 245 274 242 260 263 281 279 262 246 239 235
173 183 184 230 250 236 237 231 220 233 255 196 190 231 241 226 211 214 221 233 235 246 289 246 245 205 245 222 214 254 240 243 224 246 268 246 261 277 278 262 254 249 244
42 87 102 246 258 264 246 250 240 227 225 224 226 235 238 238 245 243 252 245 248 272 275 253 259 229 223 228 234 238 246 248 250 236 258 254 256 278 285 265 257 254 245
304 26 284 303 256 252 269 273 249 241 242 238 248 252 238 246 245 246 253 259 267 267 268 255 244 239 232 220 227 235 233 246 233 244 250 259 261 268 277 273 262 258 255
330 339 344 286 253 264 294 301 262 253 251 257 258 253 254 258 244 252 256 254 274 253 256 250 253 256 252 240 236 237 250 238 256 246 243 248 258 263 264 269 266 258 256
316 357 98 289 258 248 299 320 291 269 261 254 256 261 275 266 245 240 251 267 258 258 279 235 256 254 256 254 256 253 249 247 248 247 252 251 247 259 263 255 264 255 246
268 56 73 283 229 232 294 298 341 316 272 260 254 254 285 296 226 251 264 265 249 267 256 245 254 254 252 269 271 259 261 251 264 245 247 257 249 254 264 255 249 272 261
48 9 355 69 133 132 150 50 45 53 66 103 308 228 247 284 264 263 270 261 259 255 256 253 264 263 260 242 259 263 255 257 254 263 251 247 248 261 259 229 251 253 268
31 118 87 149 133 141 87 112 113 85 84 76 69 70 58 3 289 286 291 287 265 262 271 287 283 270 261 268 257 268 267 267 256 250 241 242 242 253 253 227 232 240 241
117 165 205 181 148 134 132 132 108 83 63 66 91 74 70 55 351 345 321 300 287 292 304 297 285 280 281 273 258 247 246 248 288 240 245 210 241 233 187 226 243 238 245
180 187 188 189 179 144 126 112 98 72 77 21 73 65 17 344 282 291 297 281 265 272 248 259 270 286 287 277 267 255 248 252 279 285 226 224 221 222 216 235 261 270 289
186 195 187 180 182 167 151 170 159 175 101 156 99 88 46 21 353 310 289 284 276 281 278 272 273 283 283 283 275 267 262 246 248 260 247 213 223 227 228 245 252 274 275
194 213 209 189 202 173 166 182 173 168 149 228 92 94 74 21 306 320 317 335 351 322 308 305 299 306 312 301 289 271 258 263 236 236 239 188 159 95 164 205 179 220 234
Height
1525 1527 1530 1532 1534 1536 1538 1541 1543 1545 1546 1548 1550 1552 1553 1553 1554 1554 1555 1555 1557 1559 1560 1561 1562 1562 1563 1564 1565 1566 1567 1567 1568 1568 1568 1569 1570 1571 1573 1574 1576 1576 1576
1524 1528 1531 1533 1535 1537 1539 1541 1544 1545 1548 1549 1550 1552 1554 1554 1556 1557 1558 1557 1559 1560 1562 1563 1564 1564 1564 1565 1566 1567 1568 1569 1570 1571 1571 1571 1572 1573 1574 1576 1577 1578 1579
1525 1528 1531 1534 1536 1538 1540 1542 1545 1547 1548 1550 1551 1553 1554 1555 1556 1558 1559 1559 1561 1561 1563 1564 1565 1566 1566 1567 1568 1568 1570 1571 1572 1573 1573 1574 1575 1576 1576 1578 1579 1580 1581
1528 1529 1532 1534 1537 1538 1541 1543 1545 1547 1549 1550 1551 1553 1554 1555 1557 1557 1560 1561 1562 1562 1564 1565 1567 1568 1568 1568 1569 1570 1571 1572 1574 1575 1576 1577 1577 1578 1578 1579 1580 1581 1583
1530 1531 1533 1535 1538 1539 1541 1543 1545 1547 1548 1550 1552 1553 1555 1555 1556 1558 1559 1561 1563 1564 1564 1566 1567 1568 1569 1570 1570 1572 1573 1575 1576 1576 1578 1578 1580 1580 1580 1581 1582 1582 1583
1530 1531 1534 1536 1538 1540 1542 1544 1546 1547 1549 1550 1552 1553 1554 1555 1556 1557 1558 1560 1563 1564 1564 1565 1567 1569 1570 1571 1572 1573 1575 1576 1578 1579 1581 1581 1581 1582 1582 1582 1582 1583 1584
1529 1531 1534 1535 1537 1540 1542 1544 1545 1547 1548 1550 1552 1553 1554 1555 1556 1557 1558 1560 1561 1563 1564 1566 1567 1568 1570 1571 1573 1574 1576 1577 1579 1581 1583 1583 1583 1582 1583 1583 1583 1584 1585
1528 1530 1533 1535 1537 1539 1541 1542 1544 1546 1548 1549 1551 1552 1554 1555 1557 1559 1559 1560 1561 1562 1563 1565 1566 1568 1570 1571 1573 1574 1576 1578 1579 1580 1582 1583 1583 1583 1583 1583 1584 1585 1586
1532 1532 1535 1535 1536 1537 1538 1541 1543 1546 1548 1550 1551 1552 1553 1555 1557 1559 1560 1560 1562 1562 1563 1564 1565 1566 1568 1570 1572 1574 1576 1577 1579 1581 1584 1583 1583 1583 1583 1584 1584 1585 1586
1532 1533 1534 1536 1537 1537 1537 1540 1544 1546 1548 1551 1552 1553 1555 1557 1558 1560 1561 1561 1562 1563 1564 1564 1565 1566 1568 1569 1571 1573 1576 1577 1578 1579 1582 1581 1582 1583 1583 1583 1584 1584 1585
1534 1535 1536 1537 1538 1537 1538 1538 1540 1545 1549 1553 1553 1553 1554 1556 1560 1563 1563 1561 1562 1563 1565 1566 1566 1567 1569 1570 1571 1572 1574 1576 1577 1580 1580 1581 1582 1582 1582 1583 1583 1584 1585
1532 1532 1533 1534 1535 1537 1537 1540 1541 1542 1547 1552 1553 1559 1558 1560 1560 1563 1567 1562 1562 1564 1566 1567 1568 1568 1568 1570 1572 1572 1573 1575 1576 1578 1579 1580 1581 1581 1582 1582 1582 1583 1584
1533 1531 1532 1534 1534 1536 1546 1544 1546 1543 1547 1551 1552 1558 1561 1561 1556 1560 1569 1562 1562 1564 1567 1568 1567 1567 1569 1570 1571 1573 1573 1573 1574 1576 1577 1578 1579 1580 1581 1581 1581 1582 1583
1534 1533 1533 1534 1534 1538 1544 1543 1545 1541 1541 1545 1549 1555 1559 1560 1561 1563 1563 1560 1564 1565 1567 1568 1566 1565 1568 1571 1571 1571 1572 1572 1574 1572 1575 1576 1577 1578 1579 1580 1581 1581 1582
1532 1531 1534 1534 1536 1536 1538 1539 1542 1544 1541 1541 1549 1552 1554 1554 1554 1555 1556 1559 1561 1564 1567 1566 1563 1563 1565 1571 1570 1570 1571 1571 1572 1573 1573 1574 1575 1576 1578 1578 1579 1580 1581
1523 1525 1531 1536 1535 1538 1537 1537 1541 1544 1546 1548 1548 1552 1550 1548 1548 1550 1553 1557 1559 1564 1566 1565 1567 1562 1566 1570 1569 1569 1569 1569 1570 1571 1571 1572 1574 1574 1575 1576 1577 1577 1578
1506 1523 1529 1532 1533 1535 1536 1536 1536 1540 1544 1544 1545 1545 1546 1547 1548 1548 1551 1552 1558 1557 1556 1562 1564 1566 1565 1565 1564 1565 1565 1566 1568 1569 1570 1570 1571 1572 1573 1574 1574 1575 1577
1526 1531 1524 1526 1530 1537 1534 1534 1533 1533 1535 1537 1537 1540 1542 1542 1544 1545 1548 1551 1555 1553 1555 1556 1560 1560 1561 1560 1559 1559 1559 1561 1564 1566 1567 1569 1569 1569 1570 1571 1571 1572 1574
1536 1526 1523 1525 1530 1536 1535 1535 1530 1528 1528 1530 1534 1537 1539 1539 1541 1545 1547 1548 1550 1550 1550 1551 1557 1557 1555 1555 1554 1555 1556 1558 1559 1561 1563 1564 1565 1566 1567 1568 1569 1571 1572
1534 1526 1529 1527 1530 1534 1537 1535 1530 1527 1525 1527 1530 1533 1536 1537 1539 1544 1546 1546 1548 1549 1549 1551 1551 1552 1552 1551 1552 1553 1553 1554 1555 1556 1557 1559 1561 1562 1564 1565 1564 1565 1568
1525 1528 1528 1528 1531 1535 1536 1533 1532 1530 1527 1527 1528 1531 1534 1536 1539 1541 1543 1545 1547 1548 1548 1549 1549 1549 1549 1549 1549 1550 1550 1548 1550 1551 1553 1554 1556 1558 1559 1560 1561 1562 1564
1527 1528 1529 1531 1533 1533 1532 1533 1533 1533 1530 1531 1533 1534 1536 1537 1540 1541 1541 1543 1544 1545 1546 1546 1546 1546 1546 1547 1547 1546 1545 1545 1544 1546 1547 1549 1552 1554 1554 1555 1556 1557 1558
1524 1526 1528 1530 1532 1531 1532 1533 1534 1533 1534 1535 1535 1536 1537 1539 1540 1541 1543 1543 1543 1543 1543 1543 1543 1543 1543 1543 1542 1543 1543 1541 1541 1541 1543 1544 1547 1547 1549 1549 1551 1553 1555
1521 1525 1527 1530 1533 1532 1534 1533 1533 1534 1535 1536 1538 1537 1538 1539 1541 1543 1542 1542 1542 1541 1541 1541 1540 1540 1540 1539 1538 1538 1539 1541 1541 1540 1531 1543 1542 1543 1544 1546 1548 1549 1551
1520 1523 1525 1528 1530 1531 1532 1532 1533 1535 1537 1537 1538 1538 1538 1538 1539 1541 1541 1540 1539 1538 1538 1538 1538 1538 1537 1536 1535 1535 1536 1537 1540 1541 1539 1541 1541 1543 1545 1545 1548 1548 1550
1520 1522 1524 1527 1529 1531 1532 1532 1535 1535 1536 1538 1538 1538 1537 1539 1539 1539 1539 1537 1536 1536 1537 1537 1537 1536 1536 1535 1534 1534 1534 1536 1538 1539 1541 1542 1541 1544 1546 1547 1549 1550 1550